Regional Weather Roundup
Issued by NWS

Home | Current Version | Previous Version | Text Only | Print | Product List | Glossary Off
Versions: 1 2 3 4 5 6 7 8 9 10 11 12 13 14 15 16 17 18 19 20 21 22 23 24 25 26 27 28 29 30 31 32 33 34 35 36 37 38 39 40 41 42 43 44 45 46 47 48 49 50

000
ASUS43 KLSX 202307
RWRMO

WEATHER SUMMARY FOR MISSOURI
NATIONAL WEATHER SERVICE SPRINGFIELD MO
600 PM CDT MON APR 20 2015

NOTE: "FAIR" INDICATES FEW OR NO CLOUDS BELOW 12,000 FEET WITH NO
       SIGNIFICANT WEATHER AND/OR OBSTRUCTIONS TO VISIBILITY.
       CURRENT SKY AND/OR WEATHER CONDITIONS ARE NOT AVAILABLE FOR
       CHILLICOTHE AND FARMINGTON.

MOZ001>031-035>038-043-044-053-054-210000-
...NORTHERN AND WESTERN MISSOURI...

CITY           SKY/WX    TMP DP  RH WIND       PRES   REMARKS
KANSAS CTY INT MOSUNNY   57  25  29 NW16G25   29.83S
KANSAS C DTWN  PTSUNNY   60  23  24 W16G25    29.83R
LEE`S SUMMIT   PTSUNNY   58  24  27 NW15G25   29.84S
ST JOSEPH      PTSUNNY   57  24  28 NW23G29   29.80F
CHILLICOTHE      N/A     58  25  28 W12G24    29.79S
KIRKSVILLE     CLOUDY    53  28  38 W14G24    29.76R

$$
MOZ066>068-077>081-088>096-101>105-210000-
...SOUTHWEST MISSOURI...

CITY           SKY/WX    TMP DP  RH WIND       PRES   REMARKS
SPRINGFIELD    MOSUNNY   56  25  30 NW16G24   29.88R
JOPLIN         MOSUNNY   59  31  34 W17G24    29.91S

$$
MOZ032>034-039>042-045>050-055>058-069>072-210000-
...CENTRAL MISSOURI...

CITY           SKY/WX    TMP DP  RH WIND       PRES   REMARKS
COLUMBIA       MOSUNNY   56  28  34 W22G29    29.80R
JEFFERSON CITY PTSUNNY   57  29  34 W16G24    29.81R
ROLLA          PTSUNNY   55  28  35 W14G22    29.81R
SEDALIA        SUNNY     57  28  33 NW14G26   29.84R
WHITEMAN AFB   MOSUNNY   58  22  25 W18       29.83R
WARRENSBURG    SUNNY     55  21  26 W15G32    29.84S
OSAGE BEACH    PTSUNNY   57  27  30 W17G26    29.83S

$$
MOZ051-052-059>065-210000-
...EAST CENTRAL MISSOURI...

CITY           SKY/WX    TMP DP  RH WIND       PRES   REMARKS
ST LOUIS INTL  PTSUNNY   57  32  38 NW14G25   29.78R
SPIRIT OF STL  PTSUNNY   57  30  35 W12G23    29.78R
ST CHARLES     CLOUDY    55  32  41 W20G29    29.77R

$$
MOZ072>076-082>087-097>100-106>115-210000-
...SOUTH CENTRAL AND SOUTHEAST MISSOURI...

CITY           SKY/WX    TMP DP  RH WIND       PRES   REMARKS
CAPE GIRARDEAU PTSUNNY   61  36  39 NW9       29.78R
FARMINGTON     PTSUNNY   57  28  33 W14       29.83R
POPLAR BLUFF   LGT RAIN  64  31  28 W15G24    29.79R
WEST PLAINS    MOSUNNY   57  28  33 W14G24    29.85R

$$



USA.gov is the U.S. government's official web portal to all federal, state and local government web resources and services.